Retour au catalogue

WESTFORD NEEDLES

LostPO
NORAD 2530·DEBRIS·🇺🇸 United States

Lancé May 9, 1963 depuis Vandenberg Space Force Base

Loading…

Prochains Passages (prochaines 24 heures)

TLE

PériméSource: Space-Track

Époque: Feb 27, 2026, 06:22 UTC

1 02530U 63014AJ  26058.26534343  .00001885  00000-0  74043+0 0  9994
2 02530  87.6001 164.2162 0535817 270.7868 106.3405  8.68329942930061

Suivez WESTFORD NEEDLES en temps réel avec AllMySat

Download on the App Store